カタログに戻る

NOAA 16 DEB

運用中SSO
NORAD 42421·DEBRIS·🇺🇸 United States

打ち上げ Sep 21, 2000 から Vandenberg Space Force Base

Loading…

次のパス (今後24時間)

TLE

経年Source: Space-Track

元期: Sep 5, 2026, 03:58 UTC

1 42421U 00055TR  26248.16538815  .00001556  00000-0  89565-3 0  9995
2 42421  98.8924 224.7277 0076396 229.4555 129.9946 14.09241140501629

AllMySatでNOAA 16 DEBをリアルタイム追跡

Download on the App Store